Location: Colorado Springs
(38.8340°N, 104.8210°W)
Time: 19:59:45
(UTC-07:00)

Vanguard 3 - Pass Details

Date: 24 October 2017
Orbit: 509 x 3263 km, 33.4° (Epoch: 17 November)

Event Time Altitude Azimuth Distance (km) Brightness Sun altitude
Rises 23:39:20 0° 186° (S) 7,084 - -59.8°
Reaches altitude 10° 23:47:24 10° 167° (SSE) 6,193 - -60.6°
Maximum altitude 23:56:57 16° 138° (SE) 5,578 - -61.4°
Drops below altitude 10° 00:05:41 10° 108° (ESE) 5,687 - -62.1°
Sets 00:12:16 0° 89° (E) 6,252 - -62.5°
